Regional Weather Roundup
Issued by NWS

Home | Current Version | Previous Version | Text Only | Print | Product List | Glossary Off
Versions: 1 2 3 4 5 6 7 8 9 10 11 12 13 14 15 16 17 18 19 20 21 22 23 24 25 26 27 28 29 30 31 32 33 34 35 36 37 38 39 40 41 42 43 44 45 46 47 48 49 50

512
ASUS43 KMKX 201320
RWRWI

WISCONSIN REGIONAL WEATHER ROUNDUP
NATIONAL WEATHER SERVICE MILWAUKEE/SULLIVAN WI
700 AM CST SAT JAN 20 2018

NOTE: "FAIR" INDICATES FEW OR NO CLOUDS BELOW 12,000 FEET WITH NO
SIGNIFICANT WEATHER AND/OR OBSTRUCTIONS TO VISIBILITY.

WIZ001-002-006>008-014>016-023>028-201400-
NORTHWEST WISCONSIN

CITY           SKY/WX    TMP DP  RH WIND       PRES   REMARKS
SUPERIOR ARPT  FAIR      29  27  94 SW5       29.79R WCI  23
ASHLAND        FAIR      24  23  96 SW7       29.78R WCI  16
HAYWARD        MOCLDY    16  10  77 CALM      29.80R
SIREN          FAIR      26  26  98 CALM      29.81S
CUMBERLAND       N/A     23  23 100 W3        29.81R FOG
RICE LAKE      MOCLDY    14  12  92 CALM      29.83R FOG
CHETEK         FAIR      17  15  93 CALM      29.82R
LADYSMITH      FAIR      13  11  91 CALM      29.81R FOG
EAU CLAIRE     FOG       23  23 100 CALM      29.81S VSB 1/4
MENOMONIE      FAIR      22  20  96 CALM      29.82R FOG
NEW RICHMOND   FAIR      19  18  96 CALM      29.83R
OSCEOLA        FAIR      20  20 100 CALM      29.86R
$$

WIZ003>005-009-010-017-018-201400-
NORTH CENTRAL WISCONSIN

CITY           SKY/WX    TMP DP  RH WIND       PRES   REMARKS
MANITOWISH WTR   N/A     15  15 100 CALM      29.75R FOG
ARBOR VITAE    FOG       22  20  93 CALM      29.76R VSB 1/4
WOODRUFF       FOG       22  20  93 CALM      29.76R VSB 1/4
RHINELANDER    FAIR      23  21  92 W5        29.76R WCI  17
EAGLE RIVER    FOG       19  19  98 W3        29.74R VSB 1/2
LAND O LAKES   FAIR      13  11  91 CALM      29.75R
PHILLIPS       FAIR      12  11  95 CALM      29.78R
TOMAHAWK       FAIR      19  18  94 CALM      29.77R
MEDFORD        FOG       24  23  96 CALM      29.78R VSB 1/2
MERRILL        FOG       20  19  98 CALM      29.80R VSB 1/2
$$

WIZ029-030-035-036-043>047-201400-
CENTRAL WISCONSIN

CITY           SKY/WX    TMP DP  RH WIND       PRES   REMARKS
WAUSAU         FAIR      29  26  89 NW7       29.78R WCI  22
MOSINEE        PTCLDY    27  27 100 CALM      29.80R
MARSHFIELD     FAIR      29  26  89 W5        29.78R WCI  24
STEVENS POINT  FAIR      23  23 100 CALM      29.81R
WAUPACA        FAIR      29  26  89 CALM      29.80R
WAUTOMA        FAIR      22  20  92 CALM      29.82R
WISC RAPIDS    FAIR      25  22  88 CALM      29.82R FOG
CAMP DOUGLAS   FAIR      21  21 100 CALM      29.82R
$$

WIZ011>013-019>022-031-037>040-048>050-201400-
NORTHEAST WISCONSIN

CITY           SKY/WX    TMP DP  RH WIND       PRES   REMARKS
ANTIGO         FAIR      23  23 100 W5        29.78R FOG     WCI  17
SHAWANO        FAIR      33  28  83 CALM      29.79R
OCONTO         FAIR      32  27  83 CALM      29.78R
STURGEON BAY   FAIR      33  28  81 W6        29.78R WCI  28
GREEN BAY      FAIR      30  25  81 SW6       29.80R WCI  24
MANITOWOC      FAIR      35  28  75 W5        29.80R WCI  31
APPLETON       MOCLDY    28  25  86 CALM      29.79R
CLINTONVILLE   FAIR      28  27  93 CALM      29.79R
OSHKOSH        FAIR      27  25  92 S5        29.81R WCI  22
$$

WIZ032>034-041-042-053>061-201400-
SOUTHWEST WISCONSIN

CITY           SKY/WX    TMP DP  RH WIND       PRES   REMARKS
LA CROSSE      FOG       23  22  96 S3        29.84R VSB 1/4
SPARTA         FAIR      20  19  98 S3        29.85R
VIROQUA        FAIR      30  30 100 SW6       29.82R WCI  24
BOSCOBEL       FAIR      26  24  92 CALM      29.85R
PRAIRIE DU CHI FAIR      26  23  91 CALM      29.85R
PLATTEVILLE    FAIR      29  28  96 S3        29.84R
$$

WIZ056-057-062-063-064-067-068-201400-
SOUTH CENTRAL WISCONSIN

CITY           SKY/WX    TMP DP  RH WIND       PRES   REMARKS
REEDSBURG      FAIR      26  26 100 CALM      29.83R
BARABOO/DELLS  FAIR      30  27  87 CALM      29.82R
LONE ROCK      FAIR      23  22  96 SW3       29.85R FOG
MINERAL POINT  FAIR      32  32 100 SW3       29.83R
MADISON        MOCLDY    26  24  92 CALM      29.83R
MIDDLETON      FAIR      28  25  87 CALM      29.83S
WATERTOWN      FAIR      24  24 100 CALM      29.83R
MONROE         FAIR      30  27  86 SW8       29.83R WCI  23
JANESVILLE     CLEAR     34  28  80 CALM      29.84S
$$

WIZ051-052-058>065-066-070>072-201400-
SOUTHEAST WISCONSIN

CITY           SKY/WX    TMP DP  RH WIND       PRES   REMARKS
MILWAUKEE      FAIR      36  28  73 SW3       29.83R
WAUKESHA       CLEAR     30  27  86 SW7       29.83S WCI  23
MILWAUKEE/TIMM FAIR      32  27  80 W8        29.84R WCI  25
RACINE         FAIR      36  28  73 W8        29.85R WCI  30
BURLINGTON     FAIR      32  27  80 SW5       29.85R WCI  28
KENOSHA        FAIR      32  26  78 W7        29.84R WCI  26
FOND DU LAC    FAIR      32  25  75 SW6       29.82R WCI  26
SHEBOYGAN      FAIR      31  28  89 W7        29.81R WCI  24
WEST BEND      FAIR      30  28  93 CALM      29.83R
JUNEAU         FAIR      28  25  91 CALM      29.84R
$$

LSZ147-162-201400-
LAKE SUPERIOR

STATION/POSITION TIME  TEMP    WIND        PRES    WAVE
                       AIR SEA DIR/SP/G            HT/PER
                 (UTC) (F)     (DEG/KT/KT) (MB)    (FT/S)
DEVILS ISLAND    1300   33     230/ 13/ 14 1008.2R
SAXON HARBOR     1230   27     200/  8/  9 1007.5R
$$

LMZ867-665-643>646-201400-
LAKE MICHIGAN

STATION/POSITION TIME  TEMP    WIND        PRES    WAVE
                       AIR SEA DIR/SP/G            HT/PER
                 (UTC) (F)     (DEG/KT/KT) (MB)    (FT/S)
NORTHPORT PIER   1300   34     240/ 10/ 19 1008.1
KEWAUNEE LAKESHO 1254   36     280/  6/  8 1007.9R
SHEBOYGAN LAKESH 1300   37     260/  9/ 11 1009.9R
PORT WASHINGTON  1230   35     270/ 10/ 11 1010.8R
MILWAUKEE LAKESH 1300   36     270/  7/  9   N/A
KENOSHA   LAKESH 1300   36     260/  6/  8 1010.8
$$

TC  - TEMPERATURE IN CELSIUS
VSB - VISIBILITY IN STATUTE MILES
WCI - WIND CHILL INDEX
HX  - HEAT INDEX





USA.gov is the U.S. government's official web portal to all federal, state and local government web resources and services.